Simultaneous Nadir Overpasses (SNOs) Predictions

Prediction of SNOs between AURA and NPP Satellite Orbit:

Table of predicted SNOs for the next 14.0 days since TLE Epoch: 3/6/2021
Index Date (AURA) Time (AURA) Lat,Lon (AURA) SZA (AURA ) Date (NPP) Time (NPP) Lat,Lon (NPP) SZA (NPP ) Distance(km) Time Diff (sec)
1 03/06/2021 03:41:31 -79.49,-158.64 81.58 03/06/2021 03:41:07 -79.48,-158.79 81.53 3.18 24
2 03/06/2021 04:30:49 79.79, 11.17 97.97 03/06/2021 04:31:42 79.79, 11.20 97.92 0.58 53
3 03/08/2021 19:11:09 71.99, 124.46 106.06 03/08/2021 19:09:56 72.35, 122.35 106.41 82.31 73
4 03/08/2021 19:57:55 -79.66, -41.56 82.88 03/08/2021 19:57:55 -79.67, -41.46 82.90 2.05 0
5 03/11/2021 11:25:02 79.48, -94.60 96.34 03/11/2021 11:24:10 79.48, -94.58 96.37 0.58 52
6 03/11/2021 12:14:23 -79.71, 74.68 84.02 03/11/2021 12:14:48 -79.72, 74.77 84.06 1.97 25
7 03/14/2021 03:41:29 79.56, 21.81 95.16 03/14/2021 03:41:02 79.56, 21.89 95.16 1.67 27
8 03/14/2021 04:30:50 -79.79,-168.86 85.21 03/14/2021 04:31:40 -79.80,-168.73 85.27 2.99 50
9 03/16/2021 19:57:57 79.59, 137.91 94.04 03/16/2021 19:57:56 79.58, 137.80 94.06 2.55 1
10 03/16/2021 20:46:06 -81.64, -27.75 90.31 03/16/2021 20:47:20 -81.26, -27.35 90.50 43.47 74
11 03/19/2021 11:25:01 -79.51, 85.59 86.91 03/19/2021 11:24:07 -79.51, 85.72 86.90 2.60 54



Historial Predications of SNOs between AURA and NPP
